Clayton Lake, ME

9:01 AM EST on February 26, 2017 (GMT -0500)
Clayton Lake

Weather History for K40B - April, 2014

Change the Weather History Date:

Wednesday, April 9, 2014

  Actual Average Record
Temperature  
Mean Temperature 32 °F -  
Max Temperature 40 °F 41 °F 51 °F (2011)
Min Temperature 24 °F 21 °F 9 °F (2003)
Degree Days  
Heating Degree Days 33    
Moisture  
Dew Point 21 °F    
Average Humidity 65    
Maximum Humidity 98    
Minimum Humidity 31    
Precipitation  
Precipitation 0.00 in - - ()
Sea Level Pressure  
Sea Level Pressure 29.54 in    
Wind  
Wind Speed 5 mph (WSW)    
Max Wind Speed 10 mph    
Max Gust Speed 24 mph    
Averages and records for this station are not official NWS values.
T = Trace of Precipitation, MM = Missing Value Source: NWS Daily Summary

Daily Weather History Graph

Daily Weather History Graph

Search for Another Location

Airport or City:

Trip Planner

Search our weather history database for the weather conditions in past years. The results will help you decide how hot, cold, wet, or windy it might be!

Date:

Astronomy

Apr. 09, 2014 Rise Set
Actual Time 6:02 AM EDT 7:17 PM EDT
Civil Twilight 5:31 AM EDT 7:49 PM EDT
Nautical Twilight 4:53 AM EDT 8:26 PM EDT
Astronomical Twilight 4:13 AM EDT 9:07 PM EDT
Moon 1:45 PM EDT (4/9) 3:08 AM EDT (4/9)
Length of Visible Light 14h 18m
Length of Day
13h 15m
Waxing Gibbous, 71% of the Moon is Illuminated
Apr 9
Waxing Gibbous
Apr 15
Full
Apr 22
Last Quarter
Apr 29
New
May 6
First Quarter

Hourly Weather History & Observations

Time (EDT) Temp. Windchill Dew Point Humidity Pressure Visibility Wind Dir Wind Speed Gust Speed Precip Events Conditions
12:16 AM 36.5 °F 30.3 °F 33.4 °F 89% 29.26 in - SW 8.1 mph 18.4 mph N/A   Unknown
1:16 AM 34.9 °F 29.9 °F 34.2 °F 97% 29.30 in - Variable 5.8 mph 11.5 mph N/A   Unknown
2:16 AM 34.9 °F 29.0 °F 34.3 °F 98% 29.34 in - Variable 6.9 mph 12.7 mph 0.00 in   Unknown
3:16 AM 33.8 °F 30.8 °F 33.1 °F 97% 29.38 in - Variable 3.5 mph - N/A   Unknown
4:16 AM 34.7 °F 30.6 °F 33.8 °F 97% 29.40 in - Variable 4.6 mph - N/A   Unknown
5:16 AM 34.2 °F 30.0 °F 33.3 °F 97% 29.41 in - Variable 4.6 mph - N/A   Unknown
6:16 AM 32.7 °F 29.6 °F 32.2 °F 98% 29.43 in - Variable 3.5 mph - N/A   Unknown
7:16 AM 33.8 °F - 32.5 °F 95% 29.46 in - Calm Calm - N/A   Unknown
8:16 AM 35.2 °F 31.2 °F 30.4 °F 82% 29.48 in - Variable 4.6 mph 15.0 mph 0.00 in   Unknown
9:16 AM 35.2 °F - 29.8 °F 81% 29.51 in - Variable 2.3 mph - N/A   Unknown
10:16 AM 35.4 °F 31.5 °F 26.8 °F 71% 29.53 in - Variable 4.6 mph 17.3 mph N/A   Unknown
11:16 AM 35.8 °F 33.0 °F 25.9 °F 67% 29.55 in - Variable 3.5 mph 16.1 mph N/A   Unknown
12:16 PM 38.7 °F 36.3 °F 19.2 °F 46% 29.54 in - Variable 3.5 mph 17.3 mph N/A   Unknown
1:16 PM 39.0 °F 33.4 °F 12.2 °F 33% 29.55 in - West 8.1 mph 20.7 mph N/A   Unknown
2:16 PM 38.5 °F 32.1 °F 10.6 °F 32% 29.56 in - West 9.2 mph 20.7 mph N/A   Unknown
3:16 PM 37.2 °F 31.2 °F 9.9 °F 32% 29.58 in - WSW 8.1 mph 24.2 mph N/A   Unknown
4:16 PM 37.0 °F 31.6 °F 8.8 °F 31% 29.60 in - Variable 6.9 mph 19.6 mph N/A   Unknown
5:16 PM 35.6 °F 28.0 °F 7.3 °F 31% 29.63 in - WSW 10.4 mph 21.9 mph N/A   Unknown
6:16 PM 33.8 °F 27.7 °F 9.1 °F 36% 29.66 in - Variable 6.9 mph 18.4 mph N/A   Unknown
7:16 PM 31.1 °F 26.4 °F 10.4 °F 42% 29.70 in - Variable 4.6 mph 18.4 mph N/A   Unknown
8:16 PM 29.1 °F 25.4 °F 10.9 °F 47% 29.74 in - Variable 3.5 mph - 0.00 in   Unknown
9:16 PM 27.9 °F 22.6 °F 11.7 °F 51% 29.78 in - Variable 4.6 mph - N/A   Unknown
10:16 PM 25.9 °F - 11.8 °F 55% 29.80 in - Calm Calm - 0.00 in   Unknown
11:16 PM 24.3 °F - 12.0 °F 60% 29.83 in - Calm Calm - N/A   Unknown